Location: Csohesd
(46.2500°N, 22.6167°E)
Time: 04:18:07
(UTC+00:00)

Okean-O - Pass Details

Date: 21 October 2021
Orbit: 639 x 640 km, 98.2° (Epoch: 04 December)

Event Time Altitude Azimuth Distance (km) Brightness Sun altitude
Exits shadow 16:51:27 21° 109° (ESE) 1,433 3.9 -14.3°
Maximum altitude 16:53:25 30° 67° (ENE) 1,149 3.4 -14.7°
Drops below altitude 10° 16:57:18 10° 6° (N) 2,043 5.2 -15.3°
Sets 16:59:42 0° 356° (N) 2,957 6.1 -15.7°
